Regional Weather Roundup
Issued by NWS

Home | Current Version | Previous Version | Text Only | Print | Product List | Glossary Off
Versions: 1 2 3 4 5 6 7 8 9 10 11 12 13 14 15 16 17 18 19 20 21 22 23 24 25 26 27 28 29 30 31 32 33 34 35 36 37 38 39 40 41 42 43 44 45 46 47 48 49 50

847
ASUS43 KMKX 162221
RWRWI

WISCONSIN REGIONAL WEATHER ROUNDUP
NATIONAL WEATHER SERVICE MILWAUKEE/SULLIVAN WI
400 PM CST MON JAN 16 2017

NOTE: "FAIR" INDICATES FEW OR NO CLOUDS BELOW 12,000 FEET WITH NO
SIGNIFICANT WEATHER AND/OR OBSTRUCTIONS TO VISIBILITY.

WIZ001-002-006>008-014>016-023>028-162300-
NORTHWEST WISCONSIN

CITY           SKY/WX    TMP DP  RH WIND       PRES   REMARKS
SUPERIOR ARPT  CLOUDY    32  19  58 CALM      30.08R
ASHLAND        CLOUDY    33  21  61 CALM      30.09R
HAYWARD        CLOUDY    31  19  61 CALM      30.06F
SIREN          CLOUDY    31  20  62 SE3       30.06F
CUMBERLAND     CLOUDY    25  16  68 CALM      30.06F
RICE LAKE      CLOUDY    25  17  71 CALM      30.08F
CHETEK         CLOUDY    28  18  67 CALM      30.07S
LADYSMITH      CLOUDY    27  19  71 CALM      30.08F
EAU CLAIRE     CLOUDY    30  16  56 NE7       30.06F WCI  23
MENOMONIE      CLOUDY    30  19  65 CALM      30.06F
NEW RICHMOND   CLOUDY    28  18  65 CALM      30.06F
OSCEOLA        PTCLDY    31  20  64 NE3       30.09F
$$

WIZ003>005-009-010-017-018-162300-
NORTH CENTRAL WISCONSIN

CITY           SKY/WX    TMP DP  RH WIND       PRES   REMARKS
MANITOWISH WTR PTCLDY    28  17  63 CALM      30.06S
ARBOR VITAE    CLOUDY    32  22  68 SE3       30.06F
WOODRUFF       CLOUDY    32  22  68 SE3       30.06F
RHINELANDER    CLOUDY    32  19  58 CALM      30.08F
EAGLE RIVER    CLOUDY    32  22  66 CALM      30.06F
LAND O LAKES   CLOUDY    32  22  66 CALM      30.09S
PHILLIPS       CLOUDY    29  20  69 CALM      30.05F
TOMAHAWK       CLOUDY    30  18  61 CALM      30.08F
MEDFORD        CLOUDY    29  17  59 E5        30.06S WCI  24
MERRILL        CLOUDY    29  15  55 CALM        N/A
$$

WIZ029-030-035-036-043>047-162300-
CENTRAL WISCONSIN

CITY           SKY/WX    TMP DP  RH WIND       PRES   REMARKS
WAUSAU         CLOUDY    30  17  58 CALM      30.08F
MOSINEE        CLOUDY    32  14  47 E6        30.09F WCI  26
MARSHFIELD     MIX PCPN  28  17  63 E7        30.06F WCI  21
STEVENS POINT  MIX PCPN  28  20  71 E6        30.10S WCI  22
WAUPACA        LGT RAIN  32  24  71 CALM      30.13S
WAUTOMA        LGT SNOW  30  27  88 NE9       30.10S FOG     WCI  22
WISC RAPIDS    MIX PCPN  30  28  92 E9        30.09F FOG     WCI  22
CAMP DOUGLAS   LGT RAIN  32  32 100 E7        30.04F WCI  26
$$

WIZ011>013-019>022-031-037>040-048>050-162300-
NORTHEAST WISCONSIN

CITY           SKY/WX    TMP DP  RH WIND       PRES   REMARKS
ANTIGO         CLOUDY    24  14  67 NE5       30.09S WCI  18
SHAWANO        CLOUDY    30  19  65 CALM      30.13F
OCONTO         PTCLDY    29  17  59 S5        30.14F WCI  24
STURGEON BAY   CLOUDY    32  21  64 S5        30.15F WCI  27
GREEN BAY      LGT RAIN  33  25  72 E5        30.14F WCI  29
MANITOWOC      MIX PCPN  32  27  81 CALM      30.15F
APPLETON       LGT RAIN  30  23  74 E5        30.11S WCI  25
CLINTONVILLE   MIX PCPN  32  21  64 SE3       30.13S
OSHKOSH        MIX PCPN  33  30  88 E9        30.10F FOG     WCI  25
$$

WIZ032>034-041-042-053>061-162300-
SOUTHWEST WISCONSIN

CITY           SKY/WX    TMP DP  RH WIND       PRES   REMARKS
LA CROSSE      RAIN      35  31  85 N3        30.03F FOG
SPARTA         MIX PCPN  32  31  96 E7        30.05F WCI  26
VIROQUA        CLOUDY    32  32 100 E6        30.00S WCI  26
BOSCOBEL       LGT RAIN  34  32  92 NE6       30.02F FOG     WCI  29
PRAIRIE DU CHI LGT RAIN  33  33  96 E7        30.00F WCI  27
PLATTEVILLE    CLOUDY    33  33 100 E10       29.98F WCI  25
$$

WIZ056-057-062-063-064-067-068-162300-
SOUTH CENTRAL WISCONSIN

CITY           SKY/WX    TMP DP  RH WIND       PRES   REMARKS
REEDSBURG      RAIN      32  32 100 E6        30.04F WCI  26
BARABOO/DELLS  MIX PCPN  32  31  96 E9        30.05F WCI  24
LONE ROCK      LGT RAIN  34  31  88 E9        30.03F FOG     WCI  27
MINERAL POINT  LGT RAIN  34  34 100 E9        29.99F WCI  26
MADISON        LGT RAIN  33  31  92 E10       30.05F FOG     WCI  25
MIDDLETON      CLOUDY    34  34 100 E7        30.05F WCI  27
WATERTOWN      MIX PCPN  33  33 100 E7        30.07S WCI  27
MONROE         MIX PCPN  32  32 100 E12       30.00F VSB 1/2 WCI  23
JANESVILLE     LGT RAIN  36  36 100 E10       30.05F FOG     WCI  28
$$

WIZ051-052-058>065-066-070>072-162300-
SOUTHEAST WISCONSIN

CITY           SKY/WX    TMP DP  RH WIND       PRES   REMARKS
MILWAUKEE      LGT RAIN  35  32  88 E10       30.10F FOG     WCI  27
WAUKESHA       LGT RAIN  32  30  93 E9        30.09F FOG     WCI  24
MILWAUKEE/TIMM LGT RAIN  34  30  86 E8        30.11F FOG     WCI  27
RACINE         RAIN      36  34  92 E10       30.11S FOG     WCI  28
KENOSHA        RAIN      36  34  92 E10       30.08F VSB 1/2 WCI  28
FOND DU LAC    RAIN      34  30  85 E8        30.10F FOG     WCI  27
SHEBOYGAN      MIX PCPN  32  28  85 NE7       30.12F FOG     WCI  26
WEST BEND      LGT RAIN  32  32 100 E8        30.09F WCI  25
JUNEAU         LGT RAIN  33  32  97 E7        30.09S WCI  26
$$

LSZ147-162-162300-
LAKE SUPERIOR

STATION/POSITION TIME  TEMP    WIND        PRES    WAVE
                       AIR SEA DIR/SP/G            HT/PER
                 (UTC) (F)     (DEG/KT/KT) (MB)    (FT/S)
DEVILS ISLAND    2200   33     170/  5/  7 1019.3F
PORT WING        2140   34     170/  2/  2 1019.0S
SAXON HARBOR     2140   30     210/  2/  2 1019.0R
$$

LMZ867-665-643>646-162300-
LAKE MICHIGAN

STATION/POSITION TIME  TEMP    WIND        PRES    WAVE
                       AIR SEA DIR/SP/G            HT/PER
                 (UTC) (F)     (DEG/KT/KT) (MB)    (FT/S)
NORTHPORT PIER   2200   28      CALM  /  8 1021.0
SISTER BAY       2150   29        CALM       N/A
ALGOMA LAKESHORE 2153             CALM       N/A
KEWAUNEE LAKESHO 2148   32        CALM     1020.6F
SHEBOYGAN LAKESH 2200   34     100/ 11/ 11 1020.9F
PORT WASHINGTON  2130   35      80/  8/ 10 1020.7F
MILWAUKEE LAKESH 2200   34      90/ 12/ 13   N/A
KENOSHA   LAKESH 2200   35      90/  8/ 10 1019.3
$$

TC  - TEMPERATURE IN CELSIUS
VSB - VISIBILITY IN STATUTE MILES
WCI - WIND CHILL INDEX
HX  - HEAT INDEX





USA.gov is the U.S. government's official web portal to all federal, state and local government web resources and services.